Aérodrome :
LOGIN :

S'inscrire | Disclaimer

   EN    FR    IT 

 










Légende :    VFR   VFR Marginal   IFR   IFR Intensif   IFR Très Intensif
Visi : 
Plafond : 
>= 8 km
>= 3000ft
5 à 8 km
1000 à 3000 ft
1500m à 5 km
500 à 1000 ft
800 à 1500m
200 à 500 ft
< 800m
< 200 ft
Symboles :   Orages  Brouillard  Fortes neiges  Fortes précipitations  Vent > 20 kt
SIGMETs :   Divers  Orages  Givrage  Turbulence  Onde Orograph.  Cendres Volcan.







- Altitude de l'aérodrome : 156 ft
- Code IATA : LCC


LIBN - Lecce Galatine (military)

DERNIER METAR :
  • 250455Z 00000KT CAVOK 19/14 Q1013 RMK BKN FEW120 BKN200 VIS MIN 9999 WIND THR14 00000KT WIND THR32 00000KT BLU

METARs EXPIRÉS :
  • 250355Z 00000KT CAVOK 16/13 Q1013 RMK BKN FEW120 BKN200 VIS MIN 9999 WIND THR14 00000KT WIND THR32 00000KT BLU
  • 250255Z 00000KT CAVOK 15/13 Q1013 RMK BKN FEW120 SCT200 VIS MIN 9999 WIND THR14 00000KT WIND THR32 00000KT BLU

TAF AMD TAF LIBN
Valide du 25 à 06h jusqu'au 25 à 15h UTC


250525Z 2506/2515 32010KT 9999 SCT035
TEMPO 2511/2516 7000 TSRA FEW025CB SCT030
Pas de NOTAMs connus pour ce terrain.



MET'MAP, la Météo Aéronautique d'un coup d'oeil ! - Copyright ORBIFLY Décembre 2007 - Disclaimer

ORBIFLY MET'MAP TEAM :

Programmation & Développement : Alexandra Zaïnal
Conception & Développement : Baudouin d'Aumeries
Co-Programmation & Développement : Marc-Olivier Méhu
Soutien technique & logistique : Manuel Goepfert

Contact : metmap@orbifly.com




SOURCES & CREDITS :

   NOAA